DateTimeUTC,F1_A11,F1_S11,BsB_S11,BsG_S11,BsR_S11,BbsB_S11,BbsG_S11,BbsR_S11,BaB_A11,BaG_A11,BaR_A11,Tu_S11,T_S11,Uu_S11,U_S11,P_S11,T1_A11
2021-08-17T08:00:00Z,00000200,20000000,,,,,,,0000.17,-000.22,-000.02,18.3,25.0,07.8,05.2,0676.7,30.9
2021-08-17T08:01:00Z,00000200,20000000,,,,,,,-000.29,-000.03,0000.19,18.3,25.0,07.8,05.2,0676.7,30.9
2021-08-17T08:02:00Z,00000200,20000000,,,,,,,0000.14,0000.20,-000.27,18.3,25.0,07.8,05.2,0676.7,30.9
2021-08-17T08:03:00Z,00000200,60000000,,,,,,,0000.14,-000.19,0000.38,18.3,25.0,07.8,05.2,0676.7,30.9
2021-08-17T08:04:00Z,00000200,40000000,0000.33,-000.20,-000.20,0000.46,0000.19,-000.24,-000.13,0000.35,0000.01,18.4,24.8,07.9,05.4,0677.6,30.9
2021-08-17T08:05:00Z,00000200,00000000,0000.98,0000.45,-000.11,0000.67,0000.53,-000.03,0000.28,0000.54,0000.26,18.5,24.8,08.0,05.4,0677.7,30.9
2021-08-17T08:06:00Z,00000200,00000000,0000.25,0000.19,0000.31,0000.38,0000.05,0000.12,-000.13,-000.54,-000.14,18.4,24.7,08.0,05.4,0677.7,30.9
2021-08-17T08:07:00Z,00000200,00000000,-000.15,0000.38,0000.21,0000.11,0000.31,0000.24,-000.10,0000.11,0000.18,18.4,24.7,08.1,05.5,0677.7,30.9
2021-08-17T08:08:00Z,00000200,00000000,0000.24,0000.44,0000.02,0000.65,0000.16,0000.15,0000.65,0000.09,-000.08,18.4,24.7,08.0,05.5,0677.7,30.9
2021-08-17T08:09:00Z,00000200,00000000,0001.20,0000.30,0000.23,0000.48,0000.08,0000.05,-000.20,0000.20,0000.23,18.4,24.7,08.0,05.5,0677.7,30.9
2021-08-17T08:10:00Z,00000200,00000000,0000.37,0000.40,-000.00,-000.32,0000.36,-000.23,-000.14,-000.08,-000.22,18.4,24.7,08.0,05.5,0677.7,30.9
2021-08-17T08:11:00Z,00000200,00000000,0001.03,0000.28,0000.32,-000.06,0000.31,0000.03,0000.63,0000.44,0000.38,18.4,24.7,08.2,05.6,0677.7,30.9
2021-08-17T08:12:00Z,00000200,00000000,0001.00,0000.36,0000.00,-000.03,0000.07,-000.06,-000.33,-000.12,-000.03,18.4,24.7,08.1,05.5,0677.7,30.9
2021-08-17T08:13:00Z,00000200,00000000,0000.78,0000.49,0000.00,-000.44,0000.09,-000.23,-000.15,-000.12,-000.23,18.4,24.7,08.1,05.5,0677.7,30.9
2021-08-17T08:14:00Z,00000200,00000000,0000.65,0000.14,-000.05,0000.47,0000.72,-000.16,0000.53,0000.35,0000.29,18.4,24.7,08.1,05.5,0677.7,30.9
2021-08-17T08:15:00Z,00000200,00000000,0001.32,0000.68,0000.30,-000.24,0000.18,-000.21,0000.18,0000.11,-000.01,18.4,24.7,08.2,05.5,0677.7,30.9
2021-08-17T08:16:00Z,00000200,00000000,0000.78,0000.36,0000.37,-000.10,-000.01,0000.09,0000.30,0000.39,0000.35,18.4,24.6,08.2,05.5,0677.7,30.9
2021-08-17T08:17:00Z,00000200,00000000,0001.21,0000.59,0000.45,0000.08,0000.50,0000.11,0000.22,0000.23,-000.02,18.4,24.6,08.2,05.5,0677.7,30.9
2021-08-17T08:18:00Z,00000200,00000000,0001.16,0000.54,0000.51,0000.03,0000.24,-000.12,-000.18,-000.15,0000.33,18.4,24.6,08.2,05.6,0677.7,30.9
2021-08-17T08:19:00Z,00000200,00000000,0000.54,0000.98,0000.53,0000.86,0000.23,0000.02,0000.35,0000.40,0000.20,18.4,24.6,08.1,05.5,0677.7,30.9
2021-08-17T08:20:00Z,00000200,00000000,-000.06,0000.41,0000.35,-000.05,0000.10,0000.08,0000.15,0000.03,0000.25,18.4,24.6,08.1,05.6,0677.7,30.9
2021-08-17T08:21:00Z,00000200,00000000,0001.23,0000.31,0000.19,0000.18,0000.06,-000.00,0000.20,0000.15,-000.32,18.4,24.6,08.1,05.6,0677.7,30.9
2021-08-17T08:22:00Z,00000200,00000000,0001.09,0000.59,0000.54,0000.28,-000.00,-000.08,0000.43,0000.53,0000.32,18.4,24.6,08.2,05.6,0677.6,30.9
2021-08-17T08:23:00Z,00000200,00000000,0000.32,0000.67,0000.48,0000.64,0000.30,-000.03,-000.23,-000.35,0000.21,18.4,24.6,08.1,05.6,0677.6,30.9
2021-08-17T08:24:00Z,00000200,00000000,0000.94,0000.59,0000.27,0000.18,0000.28,-000.20,0000.06,0000.09,-000.05,18.4,24.6,08.1,05.6,0677.6,30.9
2021-08-17T08:25:00Z,00000200,00000000,0001.34,0000.39,0000.25,0000.40,0000.21,0000.11,0000.34,0000.66,0000.44,18.4,24.6,08.1,05.5,0677.6,30.9
2021-08-17T08:26:00Z,00000200,00000000,0001.18,0000.83,0000.29,-000.32,-000.05,0000.06,0000.27,-000.24,0000.09,18.4,24.6,08.0,05.4,0677.6,30.9
2021-08-17T08:27:00Z,00000200,00000000,0000.99,0000.83,0000.25,0000.36,0000.06,-000.18,0000.27,0000.10,-000.17,18.5,24.6,07.9,05.4,0677.6,30.9
2021-08-17T08:28:00Z,00000200,00000000,0001.09,0000.38,0000.18,0000.18,0000.45,-000.11,0000.16,0000.14,0000.01,18.5,24.7,07.9,05.4,0677.6,30.9
2021-08-17T08:29:00Z,00000200,00000000,0000.85,0000.32,0000.03,-000.03,0000.12,-000.30,-000.15,0000.06,0000.20,18.5,24.7,07.8,05.4,0677.6,30.9
2021-08-17T08:30:00Z,00000200,00000000,0001.45,0000.60,0000.28,0000.49,0000.41,-000.03,-000.17,-000.14,-000.36,18.6,24.7,07.7,05.3,0677.6,30.9
2021-08-17T08:31:00Z,00000200,00000000,0000.87,0000.37,0000.44,-000.03,0000.43,0000.10,0000.23,0000.31,0000.52,18.6,24.7,07.7,05.3,0677.6,30.9
2021-08-17T08:32:00Z,00000200,00000000,0000.85,0000.83,0000.35,-000.62,-000.15,-000.05,-000.02,-000.20,-000.15,18.6,24.7,07.7,05.3,0677.6,30.9
2021-08-17T08:33:00Z,00000200,00000000,0000.71,0000.59,0000.51,0000.47,0000.43,0000.30,0000.35,0000.18,0000.14,18.6,24.7,07.7,05.3,0677.6,30.9
2021-08-17T08:34:00Z,00000200,00000000,0000.83,0000.50,0000.37,0000.08,0000.32,-000.06,0000.13,0000.35,0000.05,18.6,24.7,07.7,05.3,0677.6,30.9
2021-08-17T08:35:00Z,00000200,00000000,0000.73,0000.46,0000.39,0000.52,0000.41,0000.11,-000.18,-000.01,-000.04,18.5,24.7,07.6,05.2,0677.6,30.9
2021-08-17T08:36:00Z,00000200,00000000,0001.25,0000.30,0000.16,0000.28,0000.02,-000.36,0000.36,0000.00,0000.10,18.5,24.7,07.6,05.2,0677.5,30.9
2021-08-17T08:37:00Z,00000200,00000000,0001.40,0000.46,0000.15,0000.59,0000.26,-000.17,0000.20,0000.27,0000.23,18.5,24.7,07.6,05.2,0677.5,30.9
2021-08-17T08:38:00Z,00000200,00000000,0000.77,0000.67,0000.28,0000.73,0000.22,0000.21,0000.03,0000.25,0000.13,18.5,24.7,07.5,05.2,0677.6,30.9
2021-08-17T08:39:00Z,00000200,00000000,0001.00,0000.59,0000.54,0000.20,0000.39,-000.06,0000.04,-000.17,0000.10,18.5,24.7,07.6,05.2,0677.6,30.9
2021-08-17T08:40:00Z,00000200,00000000,0001.35,0000.49,0000.62,0000.37,0000.01,-000.10,0000.18,0000.23,-000.20,18.5,24.7,07.6,05.2,0677.6,30.9
2021-08-17T08:41:00Z,00000200,00000000,0000.28,0000.71,0000.37,0000.06,0000.19,-000.02,0000.16,0000.34,0000.09,18.5,24.7,07.6,05.2,0677.6,30.9
2021-08-17T08:42:00Z,00000200,00000000,0000.40,0000.69,0000.35,-000.01,0000.19,0000.15,0000.45,0000.12,0000.49,18.5,24.7,07.6,05.2,0677.6,30.9
2021-08-17T08:43:00Z,00000200,00000000,0001.24,0000.58,0000.46,-000.03,0000.30,-000.01,-000.10,-000.14,-000.30,18.5,24.6,07.6,05.2,0677.6,30.9
2021-08-17T08:44:00Z,00000200,00000000,0000.23,0000.71,0000.10,0000.31,0000.13,-000.24,0000.37,0000.09,0000.36,18.5,24.6,07.5,05.1,0677.6,30.9
2021-08-17T08:45:00Z,00000200,00000000,0000.29,0000.66,0000.24,0000.01,0000.25,-000.07,-000.03,0000.53,0000.15,18.5,24.6,07.5,05.2,0677.6,30.9
2021-08-17T08:46:00Z,00000200,00000000,0000.26,0000.54,0000.02,-000.31,0000.44,-000.33,0000.15,-000.15,0000.15,18.5,24.6,07.5,05.1,0677.6,30.9
2021-08-17T08:47:00Z,00000200,00000000,0001.09,0000.69,0000.43,0000.10,0000.47,0000.15,0000.27,0000.19,0000.01,18.5,24.6,07.4,05.1,0677.6,30.9
2021-08-17T08:48:00Z,00000200,00000000,0000.47,0000.59,0000.40,-000.80,0000.10,-000.24,-000.06,0000.16,0000.05,18.5,24.6,07.4,05.1,0677.6,30.9
2021-08-17T08:49:00Z,00000200,00000000,0000.97,0000.44,0000.14,-000.16,0000.22,-000.02,0000.06,0000.11,-000.01,18.5,24.6,07.3,05.0,0677.6,30.8
2021-08-17T08:50:00Z,00000200,00000000,0000.81,0000.11,-000.20,0000.24,0000.26,-000.12,0000.27,-000.00,-000.04,18.5,24.6,07.3,05.1,0677.5,30.8
2021-08-17T08:51:00Z,00000200,00000000,0000.67,0001.15,0000.19,0000.48,0000.39,-000.18,-000.00,0000.22,0000.28,18.5,24.6,07.4,05.1,0677.5,30.9
2021-08-17T08:52:00Z,00000200,00000000,0000.91,0000.45,0000.28,0000.10,0000.16,0000.02,0000.26,0000.04,0000.30,18.5,24.6,07.3,05.0,0677.5,30.9
2021-08-17T08:53:00Z,00000200,00000000,0001.00,0000.59,0000.33,0000.44,0000.27,-000.25,-000.14,0000.27,-000.20,18.5,24.6,07.3,05.0,0677.5,30.8
2021-08-17T08:54:00Z,00000200,00000000,0000.53,0000.36,0000.08,0000.55,0000.33,-000.21,0000.45,-000.04,0000.29,18.5,24.6,07.3,05.0,0677.6,30.8
2021-08-17T08:55:00Z,00000200,00000000,0000.67,0000.74,0000.27,0000.21,0000.09,0000.02,-000.15,0000.43,-000.31,18.4,24.6,07.3,05.0,0677.6,30.9
2021-08-17T08:56:00Z,00000200,00000000,0001.18,0000.35,0000.23,-000.05,0000.36,-000.12,0000.52,0000.23,0000.60,18.5,24.6,07.3,05.0,0677.7,30.9
2021-08-17T08:57:00Z,00000200,40000000,,,,,,,0000.23,-000.02,0000.29,18.6,24.6,07.2,05.0,0677.8,30.9
2021-08-17T08:58:00Z,00000200,60000000,,,,,,,-000.05,-000.14,-000.09,18.3,24.8,07.5,05.0,0676.7,30.9
2021-08-17T08:59:00Z,00000200,20000000,,,,,,,-000.25,0000.03,-000.25,18.3,24.9,07.5,05.0,0676.7,30.9
